This demonstration page uses our WeatherBlox Daily Observations layout. Learn more.

Left ArrowRight Arrow

40.92945, -100.16068

Hourly Observations for February 23, 2015

Temp ( °F °C ) Dew Point ( °F °C ) Humidity (%) Winds ( mph kmh ) Pressure ( in mb ) Visibility ( mi km ) Precip ( " mm )
12:15 am 00:15 Clear 8 -13.5 -1 -18.2 68 68 Calm 30.92 1047 10 16 N/A
12:35 am 00:35 Clear 8 -13.1 -1 -18.6 64 64 Calm 30.92 1047 10 16 N/A
12:55 am 00:55 Clear 8 -13.5 -2 -18.8 65 65 ENE 3 6 30.92 1047 10 16 N/A
1:15 am 01:15 Clear 7 -14.1 -2 -18.7 68 68 Calm 30.95 1048 10 16 N/A
1:35 am 01:35 Clear 6 -14.4 -1 -18.3 73 73 Calm 30.95 1048 10 16 N/A
1:55 am 01:55 Clear 6 -14.5 -1 -18.1 74 74 Calm 30.95 1048 10 16 N/A
2:15 am 02:15 Clear 6 -14.4 -1 -18.5 71 71 Calm 30.92 1047 10 16 N/A
2:35 am 02:35 Clear 6 -14.5 1 -17.5 78 78 Calm 30.95 1048 10 16 N/A
2:55 am 02:55 Clear 5 -14.9 0 -17.8 79 79 Calm 30.95 1048 10 16 N/A
3:15 am 03:15 Clear 5 -14.9 -1 -18.1 77 77 Calm 30.92 1047 10 16 N/A
3:35 am 03:35 Clear 5 -14.9 0 -18 77 77 Calm 30.92 1047 10 16 N/A
3:55 am 03:55 Clear 5 -15 -1 -18.2 77 77 Calm 30.92 1047 10 16 N/A
4:15 am 04:15 Clear 4 -15.4 -1 -18.3 79 79 Calm 30.92 1047 10 16 N/A
4:35 am 04:35 Clear 4 -15.5 -1 -18.3 79 79 Calm 30.89 1046 10 16 N/A
4:55 am 04:55 Clear 4 -15.5 -1 -18.5 78 78 Calm 30.89 1046 10 16 N/A
5:15 am 05:15 Clear 2 -16.5 -2 -18.9 82 82 Calm 30.89 1046 10 16 N/A
5:35 am 05:35 Clear 1 -17.5 -3 -19.4 85 85 Calm 30.92 1047 10 16 N/A
5:55 am 05:55 Clear 1 -17.2 -3 -19.5 82 82 Calm 30.92 1047 10 16 N/A
6:15 am 06:15 Clear 1 -17.2 -3 -19.5 82 82 SW 5 7 30.92 1047 10 16 N/A
6:35 am 06:35 Clear 2 -16.7 -2 -19.1 82 82 S 5 7 30.89 1046 10 16 N/A
6:55 am 06:55 Clear 3 -16.3 -2 -19.1 79 79 S 7 11 30.86 1045 10 16 N/A
7:15 am 07:15 Clear 2 -16.5 -4 -19.8 76 76 SSW 5 7 30.86 1045 10 16 N/A
7:35 am 07:35 Sunny 2 -16.5 -3 -19.7 76 76 S 7 11 30.86 1045 10 16 N/A
7:55 am 07:55 Sunny 6 -14.6 -1 -18.6 72 72 S 6 9 30.86 1045 10 16 N/A
8:15 am 08:15 Sunny 7 -13.7 0 -17.9 71 71 S 5 7 30.86 1045 10 16 N/A
8:35 am 08:35 Sunny 9 -12.9 1 -17.5 69 69 S 3 6 30.83 1044 10 16 N/A
8:55 am 08:55 Sunny 11 -11.8 0 -17.6 62 62 SSW 6 9 30.83 1044 10 16 N/A
9:15 am 09:15 Sunny 12 -10.9 2 -16.7 63 63 SW 9 15 30.80 1043 10 16 N/A
9:35 am 09:35 Sunny 14 -10.1 1 -17.2 56 56 SSW 13 20 30.80 1043 10 16 N/A
9:55 am 09:55 Sunny 16 -9.1 3 -15.9 58 58 SSW 10 17 30.80 1043 10 16 N/A
10:15 am 10:15 Sunny 16 -8.8 5 -15.2 60 60 SW 12 19 30.77 1042 10 16 N/A
10:35 am 10:35 Sunny 17 -8.1 6 -14.2 62 62 WSW 9 15 30.74 1041 10 16 N/A
10:55 am 10:55 Sunny 19 -7.4 8 -13.1 64 64 SW 10 17 30.71 1040 10 16 N/A
11:15 am 11:15 Sunny 20 -6.5 11 -11.9 66 66 WSW 10 17 30.68 1039 10 16 N/A
11:35 am 11:35 Sunny 21 -6 11 -11.7 64 64 SW 10 17 30.65 1038 10 16 N/A
11:55 am 11:55 Sunny 23 -4.9 13 -10.5 65 65 SW 13 20 30.65 1038 10 16 N/A
12:15 pm 12:15 Sunny 24 -4.5 13 -10.5 63 63 SW 12 19 30.65 1038 10 16 N/A
12:35 pm 12:35 Sunny 25 -4.1 12 -10.9 60 60 SW 10 17 30.59 1036 10 16 N/A
12:55 pm 12:55 Sunny 25 -3.7 12 -11.1 57 57 SW 12 19 30.59 1036 10 16 N/A
1:15 pm 13:15 Sunny 25 -3.7 11 -11.4 56 56 SW 12 19 30.56 1035 10 16 N/A
1:35 pm 13:35 Partly Cloudy 27 -3 11 -11.4 53 53 SW 15 24 30.53 1034 10 16 N/A
1:55 pm 13:55 Sunny 27 -2.9 11 -11.6 52 52 SW 15 24 30.53 1034 10 16 N/A
2:15 pm 14:15 Sunny 28 -2.5 10 -12.2 48 48 SW 12 19 30.53 1034 10 16 N/A
2:35 pm 14:35 Sunny 27 -2.6 10 -12 49 49 WSW 13 20 30.53 1034 10 16 N/A
2:55 pm 14:55 Sunny 29 -1.9 11 -11.6 48 48 SW 13 20 30.48 1032 10 16 N/A
3:15 pm 15:15 Sunny 29 -1.8 10 -12.4 45 45 SW 14 22 30.48 1032 10 16 N/A
3:35 pm 15:35 Sunny 29 -1.9 10 -12.2 46 46 SW 17 28 30.48 1032 10 16 N/A
3:55 pm 15:55 Sunny 29 -1.8 11 -11.9 46 46 SW 17 28 30.45 1031 10 16 N/A
4:15 pm 16:15 Sunny 29 -1.8 10 -12 46 46 WSW 14 22 30.45 1031 10 16 N/A
4:35 pm 16:35 Sunny 29 -1.9 11 -11.7 48 48 WSW 12 19 30.45 1031 10 16 N/A
4:55 pm 16:55 Sunny 28 -2.1 11 -11.6 49 49 SW 12 19 30.42 1030 10 16 N/A
5:15 pm 17:15 Sunny 28 -2.3 11 -11.6 49 49 SW 15 24 30.42 1030 10 16 N/A
5:35 pm 17:35 Sunny 27 -2.7 11 -11.5 51 51 SW 15 24 30.42 1030 10 16 N/A
5:55 pm 17:55 Sunny 26 -3.2 11 -11.9 51 51 SW 16 26 30.42 1030 10 16 N/A
6:15 pm 18:15 Sunny 25 -3.8 11 -11.8 54 54 SW 14 22 30.39 1029 10 16 N/A
6:35 pm 18:35 Clear 24 -4.6 11 -11.7 58 58 SW 13 20 30.39 1029 10 16 N/A
6:55 pm 18:55 Clear 23 -4.9 11 -11.6 60 60 SW 13 20 30.39 1029 10 16 N/A
7:15 pm 19:15 Clear 22 -5.5 11 -11.5 63 63 SW 13 20 30.39 1029 10 16 N/A
7:35 pm 19:35 Clear 22 -5.7 11 -11.6 63 63 WSW 9 15 30.39 1029 10 16 N/A
7:55 pm 19:55 Clear 21 -6.1 11 -11.6 65 65 WSW 10 17 30.36 1028 10 16 N/A
8:15 pm 20:15 Clear 20 -6.5 11 -11.5 68 68 SW 10 17 30.36 1028 10 16 N/A
8:35 pm 20:35 Clear 20 -6.5 12 -11.2 70 70 SW 13 20 30.36 1028 10 16 N/A
8:55 pm 20:55 Clear 20 -6.6 12 -11.2 70 70 SW 13 20 30.39 1029 10 16 N/A
9:15 pm 21:15 Clear 20 -6.8 12 -11.1 72 72 SW 15 24 30.39 1029 10 16 N/A
9:35 pm 21:35 Clear 19 -7.1 12 -11.1 73 73 WSW 13 20 30.39 1029 10 16 N/A
9:55 pm 21:55 Clear 19 -7.3 12 -11.1 75 75 SW 14 22 30.36 1028 10 16 N/A
10:15 pm 22:15 Clear 19 -7.5 12 -11.2 75 75 WSW 13 20 30.36 1028 10 16 N/A
10:35 pm 22:35 Clear 18 -7.7 12 -11.3 76 76 WSW 10 17 30.33 1027 10 16 N/A
10:55 pm 22:55 Clear 18 -7.8 11 -11.5 75 75 WSW 10 17 30.33 1027 10 16 N/A
11:15 pm 23:15 Clear 18 -7.7 11 -11.5 74 74 WSW 14 22 30.33 1027 10 16 N/A
11:35 pm 23:35 Clear 18 -7.7 11 -11.5 74 74 WSW 14 22 30.30 1026 10 16 N/A
11:55 pm 23:55 Clear 18 -7.7 11 -11.6 74 74 WSW 12 19 30.30 1026 10 16 N/A

Powered by AerisWeather